[[{"header":{"parameterUnit":"m.s-1","parameterCategory":1,"la1":30.2991,"la2":30.254,"lo1":-89.0895,"lo2":-89.0444,"dy":0.0017,"dx":0.0017,"nx":28,"ny":28,"refTime":"2025-01-18T09:00:00:Z","depth":0,"parameterNumber":2,"parameterNumberName":"U-component_of_WINDS"},"data":[0,0,0,0,0,0,0,0,0,0,0,0,0,0,0,0,0,0,0,0,0,0,0,0,0,0,0,0,0,0,0,0,0,0,0,0,0,0,0,0,0,0,0,0,0,0,0,0,0,0,0,0,0,0,0,0,0,0,3.4798,3.4799,0,3.4842,3.4842,3.4843,3.4816,3.4815,3.4814,3.4812,3.4856,3.4858,3.486,0,0,0,0,0,0,0,0,0,0,0,0,0,3.4693,3.4695,3.4798,3.4799,3.4799,3.4842,3.4842,3.4843,3.4816,3.4815,3.4813,3.4812,3.4855,3.4858,3.4861,0,0,0,0,0,0,0,0,0,0,0,0,0,3.4738,3.4696,3.4798,3.4791,3.4791,3.4842,3.4842,3.4843,3.4817,3.4815,3.4813,3.4811,3.4854,3.4858,3.4861,3.4921,0,0,3.4872,3.4873,0,0,0,0,0,0,0,0,3.4735,3.4742,3.4792,3.4792,3.4792,3.4822,3.4821,3.4869,3.4817,3.4807,3.4812,3.481,3.4846,3.485,3.4862,3.4923,3.4924,3.4872,3.4874,3.4876,3.4877,0,0,0,0,0,0,0,3.4732,3.474,3.4815,3.4792,3.4792,3.4786,3.4791,3.483,3.4836,3.4808,3.4806,3.4811,3.4846,3.4859,3.4863,3.4925,3.4872,3.4875,3.4877,3.4879,3.5039,3.5041,0,0,0,0,0,0,3.473,3.4737,3.4814,3.4817,3.4758,3.479,3.4794,3.4814,3.4836,3.4838,3.4813,3.481,3.4854,3.4859,3.4865,3.4937,3.4876,3.4879,3.4881,3.5037,3.5039,3.5042,0,0,0,0,0,0,3.4727,3.4737,3.4812,3.4777,3.4786,3.4794,3.4816,3.4816,3.4829,3.484,3.4841,3.4826,3.4853,3.486,3.4908,3.4938,3.4881,3.4884,3.5034,3.5038,3.5041,3.5082,0,0,0,0,0,0,3.4724,3.4736,3.4758,3.4777,3.4788,3.4854,3.4817,3.4818,3.4835,3.4832,3.4852,3.4854,3.4852,3.4902,3.4911,3.4942,3.4886,3.5032,3.5036,3.504,3.5078,3.5086,3.5093,0,0,0,0,0,3.4721,3.4767,3.4759,3.4769,3.4816,3.4856,3.4862,3.4859,3.4838,3.4861,3.4868,3.4853,3.4934,3.4908,3.4917,3.4949,3.503,3.5035,3.5039,3.5074,3.5084,3.5093,0,0,0,0,0,0,3.475,3.4769,3.4761,3.4815,3.4834,3.4851,3.488,3.487,3.4895,3.4891,3.4886,3.4891,3.4941,3.495,3.4921,3.501,3.4978,3.4985,3.5002,3.5011,3.5019,3.5016,3.4889,0,0,0,0,0,3.4764,3.4795,3.481,3.4856,3.4866,3.4872,3.4889,3.4886,3.4905,3.4913,3.4924,3.4943,3.4973,3.4993,3.5021,3.5079,3.5084,3.5106,3.5114,3.512,3.5126,3.516,3.5171,3.5058,3.5058,3.5058,0,0,3.479,3.4805,3.4824,3.4862,3.4877,3.491,3.4878,3.4914,3.4939,3.4918,3.4964,3.4973,3.4995,3.5049,3.5073,3.5058,3.5159,3.5127,3.5132,3.5134,3.5166,3.5177,3.5186,3.5061,3.506,3.506,0,0,3.4856,3.487,3.4911,3.4927,3.4949,3.4953,3.4963,3.4983,3.4988,3.5035,3.5021,3.505,3.5102,3.5118,3.5133,3.5209,3.5196,3.5218,3.5258,3.5291,3.53,3.5308,3.5336,3.5346,3.5224,3.5224,3.5224,0,3.4886,3.4935,3.4933,3.497,3.4988,3.4973,3.5015,3.503,3.5061,3.5074,3.5056,3.5122,3.5135,3.5194,3.5213,3.5225,3.5238,3.5215,3.5299,3.5307,3.5314,3.5341,3.5352,3.5227,3.5227,3.5226,3.5226,0,3.4972,3.5007,3.5037,3.5069,3.509,3.5129,3.5134,3.5156,3.5151,3.5157,3.5206,3.5222,3.5254,3.5268,3.5263,3.5327,3.5317,3.53,3.5268,3.5328,3.5353,3.5363,3.5231,3.523,3.5229,3.5228,0,0,3.5056,3.5088,3.5099,3.5114,3.5139,3.5166,3.5206,3.5238,3.5258,3.528,3.5314,3.5359,3.5345,3.5362,3.5359,3.5388,3.5449,3.5368,3.5368,3.5383,3.5522,3.5535,3.5547,3.5441,3.5443,3.5445,3.552,0,3.5124,3.5193,3.5194,3.5258,3.5291,3.5278,3.5313,3.5333,3.5341,3.537,3.5378,3.541,3.5387,3.5398,3.5426,3.5436,3.5477,3.543,3.5473,3.5475,3.5468,3.556,3.5573,3.5643,3.553,3.5532,3.5533,0,3.5212,3.5239,3.5307,3.533,3.5344,3.5375,3.5406,3.5434,3.5457,3.546,3.5482,3.5475,3.5517,3.5485,3.5543,3.5511,3.5529,3.5537,3.554,3.5543,3.5507,3.5566,3.5666,3.5676,3.5548,3.5547,3.5546,0,3.5267,3.532,3.5369,3.5382,3.541,3.5432,3.5445,3.5466,3.5487,3.5514,3.5527,3.5559,3.5576,3.5601,3.5604,3.558,3.5663,3.5631,3.5667,3.5668,3.5685,3.5684,3.5789,3.5696,3.5696,3.5696,3.5696,0,3.5343,3.5385,3.5394,3.5424,3.5472,3.5472,3.552,3.553,3.555,3.5582,3.5573,3.5603,3.5606,3.5637,3.564,3.5688,3.5696,3.5701,3.5701,3.5702,3.5701,3.5713,3.5708,3.5699,3.5698,3.5698,3.5697,0,3.5412,3.542,3.5472,3.5495,3.5502,3.5536,3.5556,3.5585,3.5593,3.5634,3.5643,3.5655,3.5692,3.5698,3.5741,3.5743,3.5801,3.5796,3.5794,3.5793,3.583,3.5827,3.5946,3.5963,3.5859,3.586,3.5861,0,3.546,3.5493,3.552,3.5542,3.5556,3.559,3.5611,3.5614,3.5637,3.5667,3.5693,3.5729,3.5758,3.5818,3.5831,3.5864,3.586,3.59,3.5865,3.5865,3.5862,3.586,3.5864,3.5906,3.5907,3.5908,3.5909,0,3.5545,3.5548,3.5579,3.5612,3.5638,3.5664,3.5689,3.5707,3.5713,3.5739,3.5778,3.5801,3.5846,3.5882,3.5916,3.593,3.5921,3.592,3.5931,3.5932,3.5929,3.5932,3.5813,3.5917,3.5916,3.5916,3.5915,3.5915,3.5606,3.5635,3.5659,3.5695,3.5715,3.5739,3.5767,3.578,3.5812,3.5849,3.5849,3.5891,3.5916,3.5961,3.5977,3.6011,3.5998,3.6013,3.6016,3.602,3.6024,3.5924,3.6017,3.6016,3.6016,3.6016,3.6016,0,3.569,3.5706,3.5739,3.5775,3.5804,3.5794,3.5822,3.5846,3.5884,3.5908,3.5938,3.5983,3.6019,3.6036,3.6072,3.6095,3.6093,3.6105,3.6103,3.6107,3.6033,3.6021,3.6107,3.6107,3.6107,3.6107,3.6107,3.6107,3.5738,3.5788,3.5794,3.5854,3.5869,3.5911,3.5928,3.5951,3.597,3.6021,3.6052,3.6063,3.6084,3.6122,3.6156,3.616,3.6173,3.6188,3.619,3.6121,3.6112,3.6103,3.6091,3.6191,3.6191,3.6261,3.6262,3.6262]},{"header":{"parameterUnit":"m.s-1","parameterCategory":1,"la1":30.2991,"la2":30.254,"lo1":-89.0895,"lo2":-89.0444,"dy":0.0017,"dx":0.0017,"nx":28,"ny":28,"refTime":"2025-01-18T09:00:00:Z","depth":0,"parameterNumber":3,"parameterNumberName":"V-component_of_WINDS"},"data":[0,0,0,0,0,0,0,0,0,0,0,0,0,0,0,0,0,0,0,0,0,0,0,0,0,0,0,0,0,0,0,0,0,0,0,0,0,0,0,0,0,0,0,0,0,0,0,0,0,0,0,0,0,0,0,0,0,0,-8.3984,-8.3986,0,-8.4123,-8.4124,-8.4126,-8.4098,-8.4095,-8.4093,-8.409,-8.4226,-8.4231,-8.4237,0,0,0,0,0,0,0,0,0,0,0,0,0,-8.3691,-8.3697,-8.3984,-8.3986,-8.3988,-8.4122,-8.4124,-8.4126,-8.4098,-8.4095,-8.4092,-8.4089,-8.4224,-8.4231,-8.4238,0,0,0,0,0,0,0,0,0,0,0,0,0,-8.3823,-8.3699,-8.3984,-8.399,-8.3992,-8.4122,-8.4124,-8.4127,-8.4099,-8.4095,-8.4091,-8.4088,-8.4221,-8.423,-8.4239,-8.4369,0,0,-8.4266,-8.427,0,0,0,0,0,0,0,0,-8.3815,-8.3834,-8.3987,-8.399,-8.3992,-8.4089,-8.4071,-8.4208,-8.41,-8.4058,-8.409,-8.4086,-8.4183,-8.4195,-8.4229,-8.4375,-8.4381,-8.4267,-8.4272,-8.4276,-8.4279,0,0,0,0,0,0,0,-8.3806,-8.3827,-8.4039,-8.399,-8.3993,-8.3985,-8.3999,-8.4096,-8.414,-8.4061,-8.406,-8.4077,-8.4183,-8.422,-8.4232,-8.4383,-8.4267,-8.4275,-8.428,-8.4283,-8.4646,-8.465,0,0,0,0,0,0,-8.3796,-8.382,-8.4034,-8.4043,-8.3893,-8.3993,-8.4009,-8.4062,-8.4139,-8.4147,-8.408,-8.4075,-8.4207,-8.4221,-8.4236,-8.4396,-8.4276,-8.4284,-8.4289,-8.4642,-8.4647,-8.4652,0,0,0,0,0,0,-8.379,-8.3815,-8.4029,-8.3931,-8.3958,-8.4002,-8.4061,-8.4066,-8.4103,-8.4153,-8.416,-8.411,-8.4204,-8.4224,-8.4337,-8.44,-8.4288,-8.4296,-8.4637,-8.4644,-8.465,-8.4715,0,0,0,0,0,0,-8.3781,-8.3813,-8.3864,-8.3933,-8.3963,-8.4129,-8.4065,-8.4072,-8.412,-8.4114,-8.4183,-8.419,-8.4203,-8.4324,-8.4346,-8.441,-8.4303,-8.4631,-8.464,-8.4647,-8.4707,-8.4722,-8.4736,0,0,0,0,0,-8.3771,-8.3875,-8.3867,-8.3892,-8.4028,-8.4132,-8.415,-8.4164,-8.4125,-8.4176,-8.4208,-8.4188,-8.439,-8.4336,-8.4361,-8.4428,-8.4628,-8.4638,-8.4647,-8.4701,-8.4719,-8.4735,0,0,0,0,0,0,-8.3809,-8.3884,-8.3875,-8.4005,-8.4063,-8.4128,-8.4192,-8.4183,-8.4252,-8.4244,-8.4257,-8.4273,-8.4389,-8.4419,-8.4359,-8.456,-8.4503,-8.4518,-8.4535,-8.4554,-8.4568,-8.4558,-8.4311,0,0,0,0,0,-8.3833,-8.3914,-8.3973,-8.4082,-8.4112,-8.4147,-8.4193,-8.42,-8.426,-8.4283,-8.4323,-8.4381,-8.4457,-8.4507,-8.458,-8.4711,-8.4726,-8.477,-8.4784,-8.4796,-8.4809,-8.4882,-8.4903,-8.4684,-8.4683,-8.4683,0,0,-8.3882,-8.3933,-8.3982,-8.4091,-8.4137,-8.4219,-8.4168,-8.4256,-8.4317,-8.4296,-8.4407,-8.4439,-8.4503,-8.4627,-8.4684,-8.4656,-8.4873,-8.4808,-8.4817,-8.4824,-8.4894,-8.4915,-8.4934,-8.469,-8.4689,-8.4688,0,0,-8.4014,-8.4061,-8.4157,-8.4205,-8.4276,-8.43,-8.4323,-8.4391,-8.4412,-8.4524,-8.451,-8.4582,-8.4713,-8.4761,-8.4802,-8.4956,-8.494,-8.4979,-8.5053,-8.5125,-8.5142,-8.5158,-8.5214,-8.5233,-8.4991,-8.4991,-8.4991,0,-8.4066,-8.4191,-8.4207,-8.4299,-8.4347,-8.4335,-8.4433,-8.4477,-8.4568,-8.4601,-8.457,-8.4736,-8.4779,-8.4915,-8.4953,-8.4986,-8.5013,-8.4971,-8.5139,-8.5154,-8.5169,-8.5222,-8.5243,-8.4996,-8.4995,-8.4995,-8.4994,0,-8.4252,-8.4339,-8.4408,-8.4499,-8.4555,-8.4649,-8.4679,-8.4734,-8.4736,-8.4763,-8.4877,-8.4929,-8.5013,-8.5045,-8.5047,-8.5182,-8.5164,-8.5136,-8.5079,-8.5194,-8.5245,-8.5265,-8.5002,-8.5,-8.4999,-8.4998,0,0,-8.4409,-8.4512,-8.4537,-8.4579,-8.4658,-8.4725,-8.4819,-8.4904,-8.4951,-8.5014,-8.5093,-8.5206,-8.5182,-8.5229,-8.5236,-8.5299,-8.5419,-8.5263,-8.5265,-8.5291,-8.5573,-8.5594,-8.5617,-8.541,-8.5414,-8.5417,-8.5568,0,-8.455,-8.4718,-8.4736,-8.4885,-8.4967,-8.4958,-8.5039,-8.5096,-8.5124,-8.5196,-8.5226,-8.5306,-8.5268,-8.5296,-8.5358,-8.5391,-8.5476,-8.5381,-8.5483,-8.5486,-8.5467,-8.5644,-8.5666,-8.5806,-8.5588,-8.5591,-8.5593,0,-8.4735,-8.4808,-8.4966,-8.5037,-8.5072,-8.5145,-8.5226,-8.5295,-8.536,-8.5375,-8.543,-8.543,-8.5525,-8.5466,-8.5598,-8.5533,-8.5576,-8.5599,-8.5604,-8.5614,-8.5547,-8.5659,-8.585,-8.5872,-8.5624,-8.5622,-8.562,0,-8.4836,-8.4973,-8.5086,-8.5123,-8.5207,-8.526,-8.5297,-8.5358,-8.5409,-8.5479,-8.5512,-8.5592,-8.5635,-8.5696,-8.5717,-8.5671,-8.5849,-8.579,-8.5864,-8.5864,-8.5902,-8.5899,-8.6103,-8.5929,-8.5928,-8.5928,-8.5928,0,-8.4991,-8.5088,-8.5133,-8.5203,-8.5312,-8.5333,-8.5439,-8.5474,-8.5529,-8.5605,-8.56,-8.5671,-8.5694,-8.5769,-8.5785,-8.5893,-8.5912,-8.5927,-8.5931,-8.5928,-8.5927,-8.5956,-8.5947,-8.5934,-8.5932,-8.5931,-8.593,0,-8.5122,-8.5156,-8.5279,-8.5351,-8.5371,-8.5449,-8.5509,-8.5576,-8.5604,-8.57,-8.5723,-8.5767,-8.5854,-8.5882,-8.5986,-8.5997,-8.6124,-8.6118,-8.6103,-8.6104,-8.6177,-8.617,-8.6407,-8.644,-8.6243,-8.6245,-8.6247,0,-8.5219,-8.5294,-8.5376,-8.5428,-8.5468,-8.5551,-8.5604,-8.5627,-8.5682,-8.5764,-8.5821,-8.5908,-8.598,-8.612,-8.6159,-8.624,-8.6236,-8.6314,-8.6248,-8.6244,-8.6238,-8.6234,-8.6242,-8.6326,-8.6328,-8.633,-8.6331,0,-8.5388,-8.5402,-8.548,-8.5565,-8.5629,-8.5696,-8.5761,-8.5803,-8.5836,-8.5898,-8.5989,-8.6045,-8.6154,-8.6241,-8.6323,-8.636,-8.6352,-8.6352,-8.6374,-8.6372,-8.6361,-8.6369,-8.6138,-8.6346,-8.6345,-8.6344,-8.6343,-8.6342,-8.5505,-8.5573,-8.5642,-8.5729,-8.5781,-8.5843,-8.591,-8.5948,-8.6026,-8.6118,-8.6127,-8.6226,-8.629,-8.64,-8.6441,-8.6518,-8.6495,-8.6526,-8.6534,-8.6542,-8.6548,-8.6349,-8.6533,-8.6532,-8.6532,-8.6532,-8.6532,0,-8.5675,-8.572,-8.58,-8.5893,-8.5962,-8.5951,-8.6023,-8.6081,-8.6169,-8.6231,-8.6302,-8.6408,-8.6493,-8.6541,-8.6626,-8.6678,-8.6676,-8.67,-8.6696,-8.6705,-8.6563,-8.6537,-8.67,-8.67,-8.67,-8.67,-8.67,-8.67,-8.5771,-8.5886,-8.5909,-8.6049,-8.6092,-8.6192,-8.6234,-8.6291,-8.634,-8.646,-8.6532,-8.6563,-8.662,-8.6709,-8.6787,-8.6798,-8.683,-8.6856,-8.6865,-8.6732,-8.6714,-8.6698,-8.6673,-8.6862,-8.6863,-8.7001,-8.7002,-8.7003]}]]